Location: Newark
(41.8083°N, 72.2500°W)
Time: 11:56:40
(UTC+00:00)

Altair - Pass Details

Date: 01 December 2021
Orbit: 1501 x 1683 km, 47.2° (Epoch: 20 January)

Event Time Altitude Azimuth Distance (km) Brightness Sun altitude
Rises 22:28:41 0° 258° (WSW) 4,742 12.1 -12.7°
Reaches altitude 10° 22:31:49 10° 260° (W) 3,736 11.0 -13.3°
Maximum altitude 22:41:13 71° 345° (NNW) 1,592 7.5 -14.9°
Enters shadow 22:47:56 21° 66° (ENE) 2,895 8.3 -16.2°
